Find Starlink 32789

NORAD ID: 62529 Int'l Des: 2025-004 Owner: SPXS Country: US Constellation: starlink operational
LEOCIRCULAR

当前视图

正在加载3D地球...

About Starlink 32789

Starlink 32789 (NORAD 62529) is a starlink constellation satellite (v2 mini) launched Jan 8, 2025 by SPXS of US. It operates in LEO, CIRCULAR orbit with a mass of 730.00 kg.

关于 Starlink 32789

正在加载描述...

即将过境

Passes for default location (London). Set your location on the main map for personalized predictions.

高度历史

Loading altitude history...

两行轨道根数

1 62529U 25004U 26196.75759622 .00007852 00000-0 29451-3 0 9998
2 62529 42.9971 216.7188 0000697 267.2413 92.8359 15.27586025 86043
Epoch: Jul 15, 2026 • Age: 8 hours

当前状态

高度 486.0 km
远地点 / 近地点 N/A
速度 7.63 km/s
星下点 40.13°N, 50.12°W
发射日期 Jan 8, 2025
运行时间 1.5 years
类型 internet

技术详情

分类 Payload
质量 730.00 kg
干质量 700.00 kg
总质量 730.00 kg
长度 0.30 m
直径 4.10 m
跨度 29.00 m
形状 Box + pan
制造商 SPXS
平台类型 Starlink V2M
阶段状态 In Orbit
所有者/国家 SPXS/US

Most Searched